Location: Hradec Kralove
(50.2170°N, 15.8330°E)
Time: 17:48:44
(UTC+01:00)

deb Explorer IX - Visible Passes

Search period start: 29 January 2023 00:00
Search period end: 08 February 2023 00:00
Orbit: 534 x 1049 km, 38.8° (Epoch: 29 January)

Date Brightness Start Highest point End Pass type
(mag) Time Alt. Az. Time Alt. Az. Time Alt. Az.
30 Jan ? 06:38:53 10° SSW 06:41:13 15° S 06:43:37 10° SE visible
31 Jan ? 06:06:37 10° SSW 06:08:49 14° SSE 06:11:03 10° SE visible
01 Feb ? 05:34:18 10° SSW 05:36:25 14° SSE 05:38:31 10° SE visible
02 Feb ? 05:03:19 13° S 05:03:59 13° SSE 05:05:58 10° SE visible
02 Feb ? 06:46:32 10° SW 06:49:05 16° S 06:51:40 10° SE visible
03 Feb ? 04:32:29 12° SSE 04:32:29 12° SSE 04:33:26 10° SE visible
03 Feb ? 06:14:03 10° SW 06:16:38 16° S 06:19:13 10° SE visible
04 Feb ? 05:42:15 13° SSW 05:44:10 17° S 05:46:46 10° SE visible
05 Feb ? 05:11:19 17° S 05:11:40 17° S 05:14:20 10° SE visible
06 Feb ? 04:40:20 16° SSE 04:40:20 16° SSE 04:41:53 10° SE visible
06 Feb ? 06:22:27 10° SW 06:24:14 12° SSW 06:25:58 10° S visible
07 Feb ? 04:09:21 10° SE 04:09:21 10° SE 04:09:27 10° SE visible
07 Feb ? 05:50:01 11° SW 05:51:42 13° SSW 05:53:42 10° SSE visible
